Wind_Speed
26 25 24 22 21 20 18 17 16 15 13 12 12 11 11 12 11 11 12 13 14 14 15 16 16 17 17 18 20 20 21 22 23 24 25 26 26 27 27 27 28 29 30 31 32 34 36 37 36 34 31 29 26 22 19 14 5 4 8 11 12 12 11 11 11 8 6 8 9 9 9 9 10 10 10 9 9 11 11 11 10 9 8 8 7 6 7 7
29 28 27 26 24 23 21 20 19 18 17 15 14 13 12 13 13 13 13 13 14 15 15 16 16 17 17 17 18 19 20 21 22 22 23 24 25 26 26 26 26 28 29 30 31 32 34 36 37 35 33 32 29 27 24 21 14 5 4 9 11 12 12 13 10 8 7 8 9 9 9 10 11 11 9 8 8 10 11 11 11 9 8 7 6 5 4 4
33 31 30 29 28 26 24 23 21 20 19 18 17 15 15 14 15 14 14 14 14 15 16 16 16 17 17 16 17 18 19 19 20 21 22 23 24 25 25 26 25 26 28 29 30 31 32 35 37 36 34 32 31 29 27 25 21 14 5 4 9 11 13 13 10 8 6 7 8 7 8 9 10 11 9 7 8 8 10 11 10 9 8 7 6 5 3 2
36 35 33 32 31 29 28 26 25 23 22 21 20 18 17 17 17 16 15 15 15 16 16 16 16 17 17 17 16 17 18 18 19 19 20 21 23 23 24 25 25 25 26 27 29 30 31 33 35 36 35 32 31 31 29 27 25 20 13 6 5 8 11 11 10 8 6 5 6 6 5 7 9 10 9 7 6 7 8 9 8 8 7 6 5 4 3 2
39 38 37 36 34 33 31 30 28 26 25 24 23 22 20 19 19 18 17 17 16 16 17 17 17 17 17 17 16 16 16 17 17 18 19 20 21 22 23 24 24 24 24 25 27 29 29 31 33 35 34 33 32 32 31 29 26 24 20 14 7 4 6 8 9 8 7 5 5 5 4 5 7 8 9 6 3 5 6 7 6 5 5 5 4 3 3 3
40 40 40 39 38 36 35 33 32 30 28 27 26 25 23 22 21 20 19 18 18 17 17 18 18 18 18 18 17 16 16 16 17 17 17 18 19 21 22 22 23 23 23 24 25 27 28 29 30 33 34 34 33 32 32 30 28 27 25 20 13 7 4 6 7 8 7 6 5 5 4 3 4 6 7 5 4 4 6 5 4 3 2 3 2 2 2 2
41 41 41 41 40 39 38 37 35 34 32 30 29 28 26 24 24 23 22 21 19 18 18 19 19 18 18 18 18 17 16 16 16 16 16 17 18 19 20 21 22 22 22 22 23 25 26 27 29 30 33 34 33 32 32 31 29 28 27 23 18 12 8 5 6 6 7 7 6 6 4 2 2 3 4 4 2 3 5 3 3 2 2 1 0 1 2 2
42 42 42 42 42 42 41 40 38 37 35 34 32 31 29 27 26 25 24 23 22 20 20 19 20 19 19 19 18 18 17 16 15 15 16 16 16 17 19 20 21 21 21 22 22 22 24 26 27 28 31 32 32 32 31 31 31 29 27 26 22 18 14 10 8 7 6 5 5 5 4 2 3 3 2 2 2 2 2 2 1 0 1 1 2 3 4 5
42 42 42 42 42 43 43 42 41 40 38 37 35 35 33 30 29 28 27 26 24 23 21 21 20 20 20 20 19 19 18 17 16 15 15 15 16 16 17 18 19 20 20 21 21 21 22 24 25 26 28 30 31 31 31 31 31 29 28 27 25 23 21 17 14 11 8 5 4 4 3 3 3 2 2 1 3 2 3 4 3 3 3 3 4 5 6 6
44 43 43 43 43 43 43 43 43 43 41 40 38 38 37 34 32 31 30 28 27 25 24 22 21 21 21 21 20 20 19 17 16 16 15 15 15 15 16 16 18 19 19 19 20 20 20 21 22 24 25 27 29 30 30 30 30 29 30 29 27 26 25 22 18 15 11 8 4 3 3 5 4 1 0 2 4 4 5 6 6 6 6 6 6 7 7 8
47 46 45 44 44 43 43 43 44 44 43 42 41 40 40 38 36 34 33 31 29 27 26 25 23 23 22 22 22 21 20 19 17 16 16 15 15 15 15 15 16 17 18 18 19 19 19 19 20 22 23 24 26 28 29 28 28 29 30 30 27 26 25 24 21 18 14 10 6 3 4 6 6 4 2 1 3 5 5 5 7 8 8 8 8 8 9 9
51 49 48 47 46 45 44 44 44 44 44 44 43 42 42 41 39 37 36 34 31 30 29 27 25 24 24 24 23 22 21 20 19 17 16 16 15 15 15 14 14 16 17 17 17 18 18 18 18 19 21 22 23 25 27 27 27 27 29 30 29 26 25 24 23 21 18 15 11 7 5 7 8 6 2 1 3 5 6 6 7 7 7 8 8 9 10 10
55 53 52 50 49 47 46 45 45 45 45 44 43 44 44 43 42 40 39 38 34 32 31 30 28 26 25 25 25 24 23 22 21 19 18 17 16 15 15 14 14 14 15 16 16 16 17 17 17 17 19 20 21 22 25 26 26 26 26 29 30 29 26 24 22 21 20 19 16 13 9 9 7 4 3 2 2 4 6 7 8 7 7 7 8 10 10 10
59 57 56 54 52 51 49 48 47 46 46 45 44 44 45 45 44 43 42 40 37 35 34 32 31 28 27 27 26 25 25 24 22 21 19 18 17 16 15 15 13 13 14 15 15 15 15 16 16 16 17 18 19 20 22 24 25 25 24 25 28 28 27 25 23 20 19 19 18 17 14 12 10 8 7 5 6 7 7 7 8 9 8 8 9 10 9 9
62 61 59 58 56 54 53 51 50 49 48 47 46 45 45 46 45 45 44 43 41 38 37 35 34 32 30 28 27 28 27 25 24 23 22 20 18 17 16 16 14 13 13 13 14 15 15 15 15 15 15 16 17 18 20 22 23 25 24 23 24 26 27 26 25 23 20 18 18 18 16 14 13 12 11 10 10 7 7 7 9 8 7 7 9 9 9 9
65 64 63 61 60 58 56 55 53 52 51 49 48 47 46 46 46 46 46 45 43 41 39 38 37 35 33 31 30 30 28 26 26 25 24 22 20 19 18 17 16 14 12 13 13 14 14 14 14 14 14 14 15 16 17 19 21 22 23 22 21 23 25 25 25 24 22 20 19 19 18 16 14 12 12 12 11 8 6 6 8 7 5 6 8 9 10 9
69 68 66 65 63 61 60 58 56 55 54 52 51 49 48 48 47 47 46 46 45 44 42 40 39 38 37 35 31 29 29 28 28 27 26 24 23 21 20 18 17 16 14 13 13 13 14 14 13 13 13 13 13 14 14 16 18 19 20 21 21 20 22 23 23 23 23 21 20 21 20 18 17 14 12 11 10 9 7 4 7 7 5 6 7 6 8 9
72 71 70 68 67 65 63 61 60 58 57 56 54 53 51 50 49 48 48 47 46 45 44 43 42 41 40 37 32 30 31 31 31 30 28 26 25 23 22 21 19 18 16 14 13 13 14 13 13 13 13 12 12 12 12 13 15 16 17 18 20 19 19 20 20 21 22 20 19 21 21 20 19 17 15 14 12 10 8 6 6 6 5 6 5 4 6 7
74 74 73 72 70 69 67 65 63 61 60 59 58 56 54 53 52 50 49 48 48 47 45 45 44 43 42 40 36 35 35 35 34 32 29 28 27 25 24 23 21 20 18 16 14 13 13 13 13 13 12 12 12 11 11 11 12 13 14 15 16 17 17 17 18 18 18 18 18 18 19 19 19 18 17 16 15 14 12 11 9 8 8 9 7 5 5 6
75 75 75 75 74 72 70 68 66 64 63 62 61 59 57 56 54 52 50 51 51 48 47 46 45 45 45 43 40 37 37 38 36 33 31 30 29 27 27 26 24 22 21 18 16 15 14 14 14 13 13 12 12 11 11 10 9 10 11 12 13 15 15 16 16 15 15 15 15 14 15 16 17 17 17 17 16 15 14 13 12 11 11 12 12 10 10 9
74 74 75 76 76 75 73 72 70 68 66 65 64 62 60 59 57 54 53 54 53 50 49 48 46 46 46 45 42 40 41 41 37 35 34 33 31 30 29 28 27 25 23 21 19 17 15 15 14 14 13 13 12 11 11 10 9 9 9 9 11 12 13 13 13 14 14 14 13 12 11 12 14 14 14 14 14 14 14 13 12 12 12 13 13 12 12 12
74 74 74 75 76 77 76 75 73 71 70 68 67 65 63 62 59 57 57 56 54 53 52 50 48 47 46 46 45 45 46 43 38 38 37 35 34 33 31 30 29 28 26 24 21 20 18 16 15 15 15 14 13 12 12 11 10 9 8 8 9 10 10 11 12 12 13 13 13 13 11 9 11 13 12 12 12 12 11 11 10 10 11 13 13 13 13 13
74 74 74 74 75 76 77 76 75 74 73 71 70 68 65 64 62 60 60 58 56 56 54 52 51 48 47 47 47 48 48 43 41 42 40 38 37 35 33 33 32 30 29 27 24 22 20 19 17 16 16 16 15 14 13 12 11 10 9 9 8 8 8 9 10 11 11 12 12 13 12 9 8 10 12 13 13 12 11 11 10 9 10 11 12 12 13 12
75 74 74 74 74 75 76 76 76 76 75 74 72 71 69 66 64 63 62 61 59 58 56 55 54 51 49 49 48 50 48 45 45 45 43 41 39 37 36 35 34 33 32 30 28 25 23 22 19 18 18 17 16 15 15 14 13 13 11 10 9 8 7 8 8 9 10 10 11 12 12 10 7 7 10 12 13 13 12 12 11 10 10 11 12 12 12 12
76 75 75 74 73 74 75 76 76 76 76 75 74 73 71 69 67 65 64 63 61 61 60 58 56 53 52 51 50 51 49 48 48 46 45 44 41 40 39 37 36 36 35 33 31 28 26 25 22 20 20 19 18 17 17 16 15 14 13 12 11 10 8 8 8 7 8 9 10 10 11 11 9 7 8 10 11 13 13 13 12 11 12 12 12 14 13 12
77 76 76 74 74 73 74 75 76 75 75 75 75 75 74 72 70 68 66 64 64 64 63 60 58 57 55 53 53 53 50 49 49 48 48 46 44 43 41 39 39 39 38 36 33 31 29 27 25 23 22 21 20 20 19 18 17 16 15 15 14 12 10 9 9 8 8 8 8 9 9 11 11 10 11 11 11 12 14 15 14 12 13 14 13 14 14 13
78 78 77 75 75 74 74 75 75 74 74 75 75 75 75 75 72 70 69 66 66 66 64 62 61 60 59 57 55 53 51 50 50 49 49 48 47 45 43 42 42 41 40 38 36 34 32 30 28 26 24 23 23 22 21 20 19 17 17 17 17 15 13 11 11 11 10 9 8 9 9 10 11 11 12 12 12 13 14 16 16 13 14 16 14 15 17 14
80 79 78 77 76 75 75 75 75 74 74 75 75 75 75 75 74 73 71 69 69 66 64 63 62 63 63 59 56 55 53 53 52 50 51 50 49 47 46 45 44 44 42 40 39 37 34 32 31 29 27 26 25 24 24 23 21 19 18 18 19 18 16 14 13 12 12 11 10 10 10 10 10 11 12 13 13 13 13 15 16 15 16 18 17 18 19 16
82 81 80 78 77 76 76 76 75 74 73 74 75 74 75 74 74 74 73 72 71 67 64 64 64 66 64 60 59 59 57 56 53 52 53 52 50 49 48 46 47 46 43 42 42 39 36 35 33 32 31 29 28 27 26 25 24 22 20 20 20 20 19 17 16 15 14 14 12 12 12 11 11 11 13 14 14 14 14 15 16 16 17 18 19 20 20 19
84 83 82 80 78 78 77 77 77 75 74 74 74 74 75 74 74 74 73 73 72 68 65 65 67 67 64 61 62 63 61 58 56 55 54 52 50 50 48 48 49 47 44 45 44 41 40 38 36 36 34 32 31 30 29 28 26 26 25 22 21 22 21 20 19 18 18 17 15 14 14 14 13 12 14 15 15 16 16 16 16 17 18 19 20 21 21 21
86 84 84 83 80 80 79 78 78 77 75 74 74 74 74 74 73 73 71 72 73 70 67 67 69 67 64 63 65 65 63 60 59 57 55 52 51 50 49 50 49 47 47 48 46 44 43 41 40 39 36 35 34 33 32 31 29 29 28 26 24 24 22 22 22 20 21 21 19 18 16 16 16 14 14 16 17 16 17 18 18 17 18 20 21 22 22 23
88 86 86 85 83 82 81 79 79 79 76 75 75 74 74 74 73 71 71 72 73 71 68 70 71 68 65 65 66 67 64 63 61 58 56 55 53 52 52 51 51 51 52 52 48 46 46 45 44 41 37 37 37 36 36 34 32 31 31 29 28 26 25 24 24 23 23 23 22 21 20 19 20 18 17 18 18 18 19 18 19 19 19 20 21 23 24 25
90 88 88 88 86 84 83 81 81 80 78 76 76 75 74 73 71 71 72 73 73 72 70 72 72 71 69 67 68 68 65 64 63 60 60 60 57 55 54 53 53 55 55 52 50 49 48 47 45 42 40 39 39 40 39 36 35 34 33 33 31 29 27 27 27 26 26 26 25 23 23 23 23 22 21 20 19 21 22 21 21 21 21 21 22 24 24 25
92 90 90 90 88 86 84 83 83 82 80 78 77 76 74 72 71 72 73 74 74 73 73 73 74 74 73 70 70 69 66 66 65 63 63 62 58 56 55 54 55 56 55 53 52 51 50 48 46 45 44 42 43 42 40 38 39 38 37 35 34 32 31 31 30 29 29 28 28 26 25 25 24 24 25 23 22 24 25 25 25 22 23 23 23 25 25 26
94 93 92 92 91 89 87 86 85 83 82 80 78 76 73 72 72 73 74 74 74 75 75 74 74 75 74 73 73 70 68 69 67 64 63 62 60 58 57 56 56 56 56 55 54 53 52 51 49 50 49 46 46 45 41 40 41 41 40 37 36 35 34 34 33 32 32 31 31 30 28 28 27 26 28 26 25 26 25 27 28 27 26 25 25 26 26 27
94 94 94 94 93 91 89 88 87 85 84 81 79 76 74 74 75 75 75 75 76 78 77 74 74 74 75 74 74 72 71 71 68 65 65 64 63 61 60 58 58 58 58 56 55 55 55 54 52 53 52 47 48 48 42 42 45 44 42 40 39 38 37 37 37 35 35 34 34 33 31 31 30 29 29 29 28 28 28 29 29 29 29 28 27 27 27 29
93 94 95 96 96 93 91 90 88 87 86 83 79 77 76 77 77 77 77 78 79 78 75 73 73 74 75 75 74 73 74 74 71 67 67 67 64 63 61 60 60 60 59 57 57 57 58 57 55 54 52 48 50 49 43 45 48 45 43 43 41 41 40 39 40 40 38 37 37 36 35 34 33 31 30 31 31 31 31 31 30 31 32 30 29 29 29 30
91 93 95 97 97 95 93 91 90 89 87 84 80 79 80 80 80 80 80 80 80 78 75 74 74 74 76 76 75 75 76 77 73 69 70 69 66 64 63 63 62 61 60 59 60 60 58 59 57 53 52 52 51 50 47 48 50 47 46 46 42 43 44 42 43 43 41 41 41 40 39 38 36 34 31 31 33 34 33 33 33 33 34 33 32 30 30 31
88 91 94 97 97 97 95 93 91 90 88 84 82 82 83 83 83 84 83 81 80 78 75 74 73 74 76 76 77 77 77 77 75 72 72 71 68 67 66 65 64 63 63 63 63 62 57 60 61 54 53 55 52 50 50 50 51 50 49 47 44 45 46 44 45 46 43 43 44 44 44 41 38 36 34 34 36 36 35 35 36 36 35 35 35 33 31 32
86 89 92 95 97 97 97 95 93 91 88 85 85 86 86 86 87 87 86 84 81 78 76 75 74 75 76 77 77 77 76 76 77 75 74 73 70 69 69 68 66 66 67 66 66 63 59 63 66 57 52 54 52 50 52 54 55 53 50 49 48 46 46 46 48 48 47 47 47 48 49 45 40 39 38 38 39 39 37 36 37 38 37 36 37 36 34 33
84 88 90 93 96 97 96 95 93 92 90 88 88 88 88 88 89 89 87 84 82 79 77 77 76 75 76 76 76 76 76 76 78 76 75 75 74 72 71 70 68 69 71 70 67 66 63 66 68 60 53 52 52 52 55 58 57 54 52 51 50 48 47 48 49 48 50 51 50 50 53 48 42 42 43 41 41 42 41 40 39 39 40 39 38 39 37 35
82 86 88 91 94 95 94 93 93 93 92 91 90 91 90 90 90 89 87 85 83 81 80 80 78 77 77 76 75 76 77 77 78 76 75 76 76 75 74 72 72 72 73 72 70 68 68 68 67 62 55 54 56 55 57 60 58 55 54 53 52 51 49 50 51 50 50 52 52 53 55 51 46 47 47 44 44 45 44 44 42 40 42 42 41 41 40 38
80 83 85 89 93 93 92 92 92 92 92 92 93 92 92 91 90 90 88 86 84 84 83 82 80 79 78 77 76 77 78 78 77 76 76 78 78 78 77 76 76 75 75 74 72 70 69 69 67 63 59 58 60 56 55 60 60 57 56 56 55 55 53 52 54 52 51 52 52 54 57 53 49 51 50 48 49 46 44 47 45 41 44 46 44 43 42 41
76 80 82 88 92 92 91 91 91 91 92 93 94 93 92 92 91 90 89 86 85 85 85 83 82 82 81 80 79 79 80 79 76 76 78 79 80 80 81 80 78 78 77 77 75 71 70 69 68 66 63 62 61 57 55 59 61 58 58 59 58 57 56 55 55 54 52 52 52 54 58 56 52 53 53 52 53 49 45 48 49 46 46 47 46 46 45 44
72 76 80 85 91 90 89 90 90 90 92 92 92 92 92 92 91 90 89 87 87 87 87 86 86 85 83 82 80 80 82 80 77 77 77 78 80 81 83 82 79 80 80 78 76 74 72 71 70 68 66 63 62 60 57 58 60 60 60 61 60 58 58 57 57 55 53 53 54 56 59 58 56 56 55 54 55 53 50 49 50 50 50 47 47 48 48 47
69 74 77 83 88 88 88 90 90 90 90 90 90 90 91 90 90 90 89 90 91 91 90 90 89 87 86 84 83 83 82 80 79 79 78 79 80 81 83 83 81 82 83 79 77 78 76 74 71 68 67 65 63 62 61 60 60 61 62 62 61 60 59 59 58 57 55 55 56 57 60 60 58 58 58 57 56 56 54 51 51 52 52 50 49 49 50 50
67 72 76 80 85 85 86 88 89 88 88 88 88 88 88 88 88 89 90 92 94 94 93 92 91 89 88 86 85 84 82 80 80 80 79 79 79 80 82 84 85 86 85 81 81 82 79 74 71 70 69 67 64 63 65 65 62 61 62 64 63 62 61 60 60 59 58 57 56 58 61 63 61 60 60 60 58 56 56 55 53 53 52 52 52 51 52 52
66 70 72 75 79 82 84 86 87 86 87 87 86 86 86 86 86 87 90 93 95 95 94 92 91 89 87 86 84 83 82 82 82 82 81 80 79 81 83 85 86 86 83 82 83 83 79 76 75 75 71 67 66 67 68 69 65 61 62 65 64 63 63 62 60 61 61 59 58 61 64 65 64 63 61 61 60 57 57 58 56 54 53 54 54 54 54 53
64 67 69 71 76 80 82 84 84 83 83 84 85 84 83 83 84 86 91 94 95 95 93 91 91 89 88 87 85 83 84 85 85 84 84 82 82 84 85 86 86 85 83 83 85 83 81 80 79 77 72 69 70 71 70 69 67 63 63 66 65 64 63 63 62 63 63 61 61 65 68 67 67 65 62 61 61 59 59 60 58 56 55 55 55 55 55 55
64 66 69 71 75 79 81 82 81 81 82 83 83 83 82 82 83 84 88 91 92 93 92 92 92 92 91 91 89 89 89 88 87 86 85 84 84 85 85 85 85 84 82 84 85 85 85 84 81 77 74 72 72 72 71 70 70 68 67 68 67 64 63 64 65 66 64 63 66 69 71 70 68 66 64 63 61 60 62 62 59 58 58 57 57 57 57 57
64 66 69 70 73 76 78 78 79 80 81 81 81 82 81 81 82 82 85 87 87 88 90 92 93 93 93 93 92 92 91 88 87 87 85 84 85 85 85 86 85 83 82 85 87 88 87 85 82 79 77 75 72 72 73 73 74 72 69 68 67 66 65 67 68 68 66 67 71 73 73 71 68 65 65 65 62 61 64 63 60 61 62 59 58 59 58 59
66 68 69 70 72 73 74 75 75 76 78 79 80 81 81 81 81 81 83 83 83 85 88 90 90 90 92 92 92 91 89 86 86 86 85 85 87 86 86 86 84 83 84 85 88 90 88 85 84 83 81 78 75 74 76 78 78 75 71 69 68 69 70 70 69 69 68 71 75 75 72 70 69 67 65 66 65 64 64 63 62 63 63 60 60 62 61 61
Wind_Direction
244 244 244 242 240 238 238 241 246 248 248 252 260 269 279 288 295 303 312 319 325 330 335 340 344 349 356 2 6 10 14 19 22 24 24 25 25 27 27 27 27 29 31 32 32 33 33 33 34 38 42 42 43 44 44 45 59 176 198 202 198 199 189 176 173 172 178 179 185 191 188 174 167 161 155 161 169 171 167 163 159 159 168 174 174 179 188 197
245 245 246 246 245 243 240 239 242 247 250 250 254 261 269 278 285 292 300 308 314 320 325 330 335 339 346 354 360 4 8 14 18 21 22 23 24 25 26 26 25 26 28 30 31 32 32 32 32 33 36 38 40 41 42 43 45 64 176 199 200 198 192 181 170 167 176 177 185 192 187 178 172 163 154 148 152 158 152 142 136 134 139 144 145 142 161 183
244 245 246 247 247 247 246 243 241 243 248 251 252 255 262 270 276 283 290 297 304 310 315 321 326 330 335 344 351 357 1 8 13 17 20 21 22 22 23 24 25 24 25 28 29 31 31 31 32 31 33 35 37 40 41 42 44 45 67 175 190 193 196 187 166 162 167 165 174 186 188 185 179 170 159 146 142 146 140 134 132 131 132 130 129 126 138 183
244 245 246 246 247 248 249 248 246 243 245 249 252 253 256 262 269 275 281 288 294 300 306 311 317 321 326 333 341 349 354 0 6 12 16 19 20 20 21 22 23 23 23 26 28 29 30 30 31 31 31 32 36 40 41 43 44 44 50 75 152 183 196 191 175 168 163 158 157 165 181 186 185 169 153 149 150 154 142 134 138 137 137 137 137 142 163 208
243 243 245 246 247 247 248 250 250 248 245 246 249 252 254 258 263 269 274 280 286 292 297 302 308 312 317 323 330 339 346 352 358 5 11 15 17 19 19 19 21 22 22 23 26 28 29 30 30 30 29 31 34 38 41 42 44 45 48 55 76 136 182 191 186 177 166 167 151 138 149 176 184 158 142 134 121 169 156 133 142 140 138 144 144 157 191 225
242 243 243 244 245 246 247 248 249 250 249 247 248 249 251 255 259 263 268 272 278 284 289 294 300 304 309 315 321 328 336 343 350 357 4 10 14 16 17 17 17 20 21 21 24 27 29 29 30 29 29 30 32 35 39 40 42 43 44 47 56 79 136 177 185 180 175 174 158 138 131 160 173 152 154 137 91 174 184 153 156 157 156 154 144 165 198 230
242 242 242 243 244 245 246 247 248 249 251 250 249 249 249 251 255 259 263 266 270 276 281 286 292 296 301 306 312 319 326 334 341 348 356 3 9 13 14 14 15 16 19 19 21 25 28 29 30 29 29 30 31 34 39 41 42 44 44 46 50 61 85 124 154 166 172 174 169 150 128 137 153 138 178 189 160 203 205 182 175 176 180 172 148 299 303 288
242 242 242 242 242 243 244 245 246 247 249 250 251 251 249 248 251 254 258 261 265 269 273 279 284 289 294 298 304 310 316 324 331 339 346 354 2 7 11 12 12 13 15 17 18 21 25 28 29 29 29 29 30 33 38 40 42 44 46 47 50 56 66 82 103 123 137 154 166 150 129 147 152 117 147 211 235 225 231 232 210 215 273 302 316 319 314 310
244 243 243 242 242 242 243 243 245 246 247 248 250 252 251 249 249 251 253 257 260 263 266 271 276 281 286 291 296 301 307 314 322 330 336 344 353 0 6 9 10 9 10 13 15 17 22 27 29 30 30 29 30 34 37 39 41 43 45 47 51 56 59 64 73 83 90 100 128 138 138 170 170 116 98 343 324 301 295 302 308 316 316 316 315 314 313 310
246 245 244 244 243 242 242 242 243 244 245 246 247 250 251 251 250 250 251 253 255 259 262 265 269 274 279 284 288 293 299 306 312 319 327 334 343 352 360 5 7 7 6 9 11 14 18 23 28 30 32 31 30 33 37 40 41 44 47 48 53 58 59 60 64 70 73 74 83 125 173 188 183 152 125 319 330 326 315 310 311 320 321 314 311 312 313 311
246 246 245 245 244 243 242 242 242 243 243 244 245 247 249 250 250 251 251 250 252 255 258 260 263 267 272 277 282 286 291 297 303 310 317 325 333 341 351 359 3 4 4 4 7 9 12 18 24 28 33 34 31 32 37 41 42 45 49 50 53 57 58 59 62 67 70 74 88 136 194 196 182 176 187 284 343 341 331 320 320 328 329 321 318 318 318 317
246 246 246 246 245 245 244 243 242 242 242 243 243 245 247 248 249 250 251 251 250 252 254 256 258 261 266 271 275 279 284 289 294 300 307 315 323 330 339 349 358 0 0 0 2 5 7 11 18 24 30 34 34 32 35 40 42 45 49 53 54 55 55 56 60 64 67 73 85 105 151 169 170 180 183 12 348 339 332 331 332 332 330 327 327 329 328 328
246 246 246 246 246 246 246 245 244 243 242 242 242 243 245 247 248 249 250 251 250 250 252 254 255 257 260 264 269 274 279 283 287 292 298 305 312 319 327 337 348 355 356 356 357 360 2 5 10 17 24 31 35 34 35 38 40 43 48 52 53 53 53 55 59 60 60 62 66 77 98 123 134 139 118 109 47 10 333 325 334 342 347 337 336 341 339 335
245 245 245 245 245 246 246 246 245 245 244 243 242 242 244 245 246 247 248 249 249 250 251 252 253 254 256 259 264 269 272 275 280 285 290 296 302 309 316 325 336 347 350 351 353 354 357 360 3 10 16 23 31 35 36 37 39 39 43 49 50 52 53 54 58 58 59 59 59 64 73 83 85 72 82 94 66 31 351 337 340 348 359 351 346 350 344 337
244 244 244 244 245 245 245 246 246 245 245 244 243 242 242 244 245 246 247 248 248 248 249 251 252 252 253 256 260 262 265 270 275 279 284 288 293 299 306 313 322 334 342 345 346 348 351 354 356 1 9 16 23 31 35 37 39 38 40 48 50 52 54 54 55 57 62 64 58 59 64 72 73 68 70 72 70 53 12 355 343 352 5 352 350 353 348 345
243 243 244 244 244 244 244 245 245 246 246 245 244 243 242 243 244 245 246 247 247 247 248 250 251 252 252 252 254 258 263 268 271 275 279 282 286 291 297 303 310 319 330 337 339 341 344 348 349 353 0 7 15 25 32 35 38 38 39 45 48 52 55 53 53 55 61 62 57 56 60 65 65 64 65 64 68 68 50 7 343 5 14 351 1 0 343 341
243 243 243 243 243 243 243 244 244 245 246 246 245 244 243 243 243 244 245 246 246 246 246 248 250 250 251 251 253 259 263 265 267 270 272 276 280 284 289 294 300 307 316 325 331 334 336 341 343 346 351 356 4 15 27 33 35 36 36 40 42 46 52 53 51 53 56 57 57 57 57 59 60 59 60 59 58 54 51 5 340 4 2 348 0 351 330 336
241 242 243 243 243 243 243 243 243 244 245 246 245 245 244 243 243 244 245 246 247 246 245 246 248 249 251 253 253 255 257 258 260 262 265 271 275 278 283 287 292 297 304 312 320 325 328 332 336 338 341 346 351 1 16 28 33 34 33 36 39 40 46 50 50 52 54 54 57 59 56 57 59 59 59 61 62 59 51 32 7 9 9 9 0 329 331 344
241 241 241 242 243 242 242 242 242 242 243 245 245 245 245 244 244 244 245 246 246 246 245 245 246 248 250 250 248 248 251 253 255 258 263 267 270 274 277 281 285 290 295 301 307 314 319 322 327 330 331 335 339 345 359 15 27 31 31 34 38 38 41 45 46 49 52 51 54 57 57 58 59 59 59 60 62 62 59 56 48 35 35 43 41 31 20 15
241 241 241 241 242 242 242 242 242 242 242 243 244 244 245 245 245 244 245 245 246 245 245 245 245 246 248 250 250 250 252 254 255 258 261 263 267 270 272 276 280 284 288 292 296 302 309 313 317 321 322 323 328 332 340 353 10 20 25 30 33 36 38 40 41 44 47 49 51 52 55 58 58 58 58 56 56 57 59 58 52 44 42 45 46 47 43 37
241 241 241 241 241 241 242 242 242 242 242 242 243 243 244 245 245 245 244 245 246 246 245 245 244 244 247 250 250 250 251 252 253 256 257 259 262 265 268 272 275 279 282 285 289 292 299 304 306 311 314 315 318 321 325 331 344 358 7 18 26 31 32 34 35 39 41 42 45 44 46 52 51 50 50 50 50 50 53 54 51 43 39 38 39 39 37 37
240 240 240 241 241 241 241 241 241 241 241 241 242 242 242 243 244 243 244 245 246 246 246 245 244 244 245 246 247 247 249 250 252 253 254 256 258 261 265 268 271 274 278 280 283 285 289 294 298 302 305 308 310 311 313 316 321 331 341 354 11 21 24 26 27 31 34 34 36 33 33 47 46 42 40 39 39 38 37 40 40 35 30 28 27 26 24 26
241 240 240 240 241 241 241 240 240 241 241 241 241 241 241 242 243 243 243 244 245 246 246 246 246 244 244 245 245 247 249 250 251 251 253 254 255 259 262 265 268 271 274 276 278 280 283 286 289 294 297 300 303 304 304 305 307 310 319 330 341 358 8 15 20 25 26 25 29 25 25 35 34 35 38 35 31 27 23 22 24 24 21 18 16 13 10 10
242 241 240 239 240 241 241 241 240 240 240 241 241 241 241 241 241 241 242 243 244 245 246 246 246 245 244 244 244 247 248 248 248 250 252 253 254 257 259 262 265 267 270 272 274 276 278 279 282 286 289 292 295 298 298 297 298 301 306 311 316 328 341 353 4 14 16 18 23 19 18 20 7 16 32 34 30 23 19 18 17 19 20 19 17 11 6 2
242 241 240 239 239 240 241 241 240 240 240 240 240 241 241 241 240 241 241 242 242 243 244 245 246 245 245 244 244 245 246 246 247 249 250 251 252 254 256 259 262 264 266 269 271 273 274 274 276 278 282 285 288 291 292 292 293 295 298 301 303 309 316 326 336 349 359 4 12 12 11 8 358 353 2 14 18 12 11 11 8 12 16 15 15 14 9 4
242 242 240 239 239 239 239 240 240 240 240 240 240 240 240 240 240 240 240 241 241 242 243 245 245 246 246 244 244 244 244 246 247 248 249 250 251 252 254 256 259 261 263 265 268 270 270 270 271 272 274 278 281 284 285 287 288 290 292 294 296 300 304 310 314 321 332 339 350 358 359 357 355 354 352 353 355 354 358 1 358 1 5 3 4 5 1 0
242 242 241 240 239 239 239 240 240 239 240 240 240 240 240 240 240 240 240 240 240 241 242 243 244 245 246 245 245 245 245 246 246 247 248 249 250 251 252 254 256 259 260 263 265 266 267 268 268 268 269 271 274 277 279 281 283 284 286 288 290 293 297 302 306 308 313 317 324 332 338 344 345 347 348 345 345 349 352 351 351 355 356 355 355 354 353 354
242 242 241 240 239 238 238 239 239 238 238 239 239 240 239 240 240 239 239 240 240 241 241 242 242 244 245 245 246 246 246 245 245 246 247 248 248 249 250 251 253 256 258 260 262 264 266 266 266 265 265 267 268 271 274 276 278 279 280 283 285 287 290 293 298 302 305 307 312 314 316 321 328 331 331 332 337 344 345 342 342 345 347 348 348 348 350 350
242 242 241 240 239 238 238 238 239 238 237 238 238 239 239 239 239 239 239 239 240 240 240 241 241 242 244 245 245 246 245 245 245 245 246 247 247 248 249 250 252 254 256 259 261 262 264 264 265 264 262 262 264 266 269 271 274 276 276 277 280 282 285 288 291 296 299 301 305 308 307 308 312 317 318 319 323 328 331 334 335 337 339 342 342 342 344 344
241 241 241 240 239 238 238 238 238 238 237 237 237 238 238 239 239 239 239 240 240 238 238 240 241 242 243 243 244 245 245 245 245 245 245 246 247 248 249 250 252 254 256 258 259 260 261 263 263 262 261 261 262 263 265 267 270 272 273 274 275 277 281 284 286 290 293 294 297 301 303 306 306 310 312 311 313 317 320 325 329 331 332 334 336 336 336 337
240 240 241 240 239 238 238 237 237 237 237 236 236 236 237 237 238 238 239 239 239 238 237 239 241 242 242 241 243 245 245 245 246 246 247 247 248 249 249 250 252 254 255 256 256 258 259 260 260 260 261 261 261 262 262 264 266 268 270 272 273 274 277 280 282 285 287 288 292 294 297 301 301 304 309 308 309 313 314 318 321 323 326 328 330 332 332 332
240 239 239 240 239 238 238 237 237 237 236 236 236 236 236 236 237 238 238 238 238 238 236 237 239 240 240 240 241 243 244 245 246 246 247 247 246 247 247 248 249 250 251 252 253 254 256 256 257 259 261 262 262 261 261 262 263 264 267 269 269 271 274 277 278 280 281 284 286 289 293 296 297 301 304 305 308 310 311 313 315 317 320 322 324 327 328 328
239 238 239 239 238 237 237 237 236 236 236 235 235 236 235 235 235 236 236 236 237 237 234 235 237 238 238 238 240 242 242 243 245 244 245 245 245 245 246 246 247 248 249 251 252 252 254 255 257 259 260 261 261 261 261 261 262 263 264 266 266 269 272 273 275 277 279 280 282 285 289 291 294 299 299 302 308 309 310 312 312 314 316 317 319 320 321 322
237 238 238 238 237 237 236 236 236 236 235 235 235 235 235 235 235 235 235 236 236 236 235 235 236 236 237 237 239 240 241 242 243 243 244 246 246 246 247 247 248 250 251 252 252 253 254 255 257 258 258 259 260 260 262 262 262 262 262 264 266 267 268 270 272 275 276 278 280 282 285 287 290 294 295 300 304 305 308 310 309 312 314 315 317 317 315 315
236 236 237 237 237 236 236 235 235 236 235 235 234 234 234 234 234 234 235 235 235 236 235 234 235 236 237 237 238 239 240 241 242 242 244 245 246 246 246 247 249 250 251 252 252 253 254 254 255 256 256 256 258 259 261 263 262 261 261 263 265 266 266 268 269 271 273 276 278 280 282 285 288 290 293 297 299 301 304 305 305 309 312 312 314 315 312 311
235 235 235 236 236 236 235 235 235 235 235 235 234 233 233 233 233 233 233 233 234 235 234 234 234 235 236 237 238 239 240 241 241 241 243 244 244 245 245 246 247 249 250 251 251 252 253 253 252 254 254 254 257 258 258 262 262 261 262 262 263 264 265 266 268 269 271 273 275 277 279 281 284 287 290 294 296 298 299 299 302 306 307 308 310 311 311 310
234 234 234 235 235 235 234 234 234 234 234 234 234 233 232 232 232 233 233 233 233 234 234 234 234 235 236 236 237 237 239 241 240 240 242 243 244 245 245 245 246 248 249 250 251 251 251 252 251 252 254 253 255 257 257 260 262 262 263 262 262 264 265 266 267 268 269 271 272 274 276 277 279 282 287 291 293 294 294 296 300 301 301 303 306 307 310 311
234 233 233 234 234 234 234 233 234 234 234 234 233 232 232 232 232 233 233 233 233 234 234 234 233 235 236 236 236 236 237 239 240 239 240 242 242 243 244 245 246 247 249 250 250 250 251 253 252 251 253 253 253 256 257 259 261 261 262 262 262 263 263 264 266 267 268 269 271 272 272 274 277 281 284 287 289 290 292 295 296 297 298 300 302 303 307 310
233 232 232 233 233 233 233 233 233 233 233 233 232 231 231 231 232 232 233 233 234 234 234 234 234 234 236 236 236 236 236 238 239 238 239 241 241 242 243 243 244 246 247 248 249 250 251 254 254 250 250 253 253 255 257 259 260 260 261 262 262 262 263 264 265 267 268 268 269 271 271 272 275 280 282 283 285 286 290 293 293 294 296 297 299 301 304 306
233 232 231 232 232 232 232 232 232 232 232 232 231 231 231 231 231 232 232 233 233 233 233 233 233 234 236 236 236 237 237 238 239 238 238 240 240 240 242 242 243 244 246 246 248 249 249 251 253 249 247 251 253 254 257 258 258 258 259 261 261 262 264 265 265 266 268 268 269 270 271 271 274 278 280 281 283 285 286 288 290 292 292 294 297 298 300 302
233 232 231 231 231 231 231 231 231 231 231 231 231 231 231 231 231 232 233 233 233 234 233 233 233 233 235 236 237 238 237 237 239 239 238 240 240 240 241 242 243 244 245 246 246 248 248 249 252 252 249 251 253 253 255 256 256 257 259 260 261 262 264 265 266 266 267 268 269 270 271 273 275 276 276 278 282 284 285 286 287 289 290 291 294 296 298 299
233 231 230 231 231 231 230 230 230 230 230 230 230 230 231 231 231 232 233 233 233 233 233 233 233 233 234 236 236 238 238 237 238 238 238 239 240 240 241 241 242 243 244 246 246 246 248 249 251 253 252 252 251 250 253 256 257 258 259 260 262 262 262 264 265 265 266 268 269 271 272 274 275 275 275 277 278 280 284 286 286 287 289 291 293 295 298 299
233 231 230 230 231 230 229 229 229 229 229 229 229 230 230 231 231 232 233 232 232 233 234 234 234 233 234 235 235 237 238 237 237 238 237 238 239 239 240 241 241 242 244 245 246 246 247 249 251 253 252 251 251 251 252 256 257 258 258 260 261 261 261 261 263 264 266 268 269 272 273 274 274 275 275 276 276 276 280 282 283 285 287 290 292 294 296 298
232 230 228 229 230 229 229 229 229 229 229 229 229 229 230 230 231 232 232 232 232 233 233 234 234 234 234 234 234 235 237 237 236 237 237 238 238 238 239 240 241 243 244 245 247 247 247 249 251 251 251 252 253 253 252 255 257 258 259 259 259 261 262 261 262 264 265 268 270 272 273 274 273 274 275 276 276 277 277 279 281 283 284 287 291 293 295 297
231 229 227 228 230 229 228 229 229 228 229 229 229 229 229 230 231 231 232 232 232 232 232 233 233 233 233 234 234 236 237 237 236 236 237 238 238 238 239 240 240 242 244 245 246 247 247 248 249 251 252 253 255 255 254 254 256 258 258 259 259 260 261 263 264 264 265 267 269 270 272 274 274 273 274 274 276 277 276 277 281 283 283 285 288 291 294 295
230 228 226 227 229 228 227 228 228 228 229 229 229 229 229 229 230 231 231 232 232 231 231 232 232 232 232 233 233 235 236 237 238 237 237 237 238 239 240 240 240 241 243 244 246 247 247 247 249 251 253 253 254 256 256 254 255 256 258 259 260 259 260 261 263 265 265 266 267 269 272 273 273 273 274 273 274 276 277 278 279 280 283 285 287 289 291 293
229 228 225 225 227 227 226 228 228 228 229 229 229 229 229 229 229 229 230 230 231 231 231 231 232 232 233 233 233 234 236 237 238 238 238 238 239 239 240 240 239 239 241 242 244 246 246 247 249 249 250 252 254 256 256 255 253 254 257 259 260 260 260 260 261 263 264 265 266 269 271 271 271 271 273 274 274 276 278 278 278 279 282 284 286 288 289 291
228 228 226 225 226 226 226 227 227 227 228 229 229 229 229 229 228 229 229 230 230 231 231 231 232 232 233 234 235 236 237 237 237 238 237 237 237 238 240 240 240 240 240 242 244 246 247 247 248 248 249 251 253 253 254 255 255 255 257 258 259 260 261 261 261 262 264 265 267 268 268 268 269 269 270 272 274 275 277 278 279 280 282 283 285 286 287 290
227 226 225 223 224 224 224 225 226 227 228 229 230 230 229 229 229 229 230 230 230 231 231 231 232 232 233 233 234 235 236 236 237 237 237 237 236 237 238 239 240 240 240 241 243 245 246 246 246 247 248 249 251 253 254 256 258 257 256 258 258 259 260 262 262 262 263 264 267 268 267 266 267 268 269 271 273 276 277 277 279 280 281 282 283 284 286 288
224 224 223 221 221 223 223 223 223 224 225 227 228 229 229 229 229 229 230 231 231 231 231 230 231 231 231 231 231 232 233 234 235 236 237 238 238 238 239 240 241 241 240 240 242 243 245 246 246 247 247 248 250 253 255 255 257 256 255 257 258 259 260 261 262 262 262 263 264 265 265 265 266 269 270 271 273 276 277 277 280 281 281 282 283 284 285 287
222 221 221 220 220 221 222 222 222 223 224 225 226 228 228 229 229 229 230 230 231 231 231 231 231 231 231 231 231 232 233 234 236 237 237 238 239 239 240 241 242 242 240 240 240 241 243 245 246 247 247 247 248 251 253 253 254 254 254 256 258 259 258 259 259 260 261 262 263 263 263 265 267 269 271 272 273 274 276 278 280 281 281 283 284 284 285 287
219 219 219 219 219 219 220 221 221 222 223 224 225 226 227 228 229 229 230 230 230 231 231 231 231 232 232 232 232 233 234 235 237 238 238 238 239 239 240 241 242 243 242 241 241 242 242 243 245 245 245 245 246 248 250 251 252 252 253 255 256 257 257 258 259 260 261 261 262 262 264 266 268 269 270 272 273 273 275 277 279 279 281 283 284 285 285 286
Height
11014 11015 11016 11017 11018 11018 11019 11020 11020 11021 11021 11022 11022 11022 11022 11022 11022 11022 11022 11022 11021 11021 11021 11020 11019 11019 11018 11018 11017 11016 11015 11014 11013 11012 11011 11010 11009 11008 11006 11004 11003 11001 10999 10998 10996 10994 10991 10989 10987 10985 10983 10982 10980 10978 10977 10975 10974 10972 10972 10973 10974 10974 10975 10976 10975 10975 10977 10978 10979 10979 10980 10980 10980 10980 10980 10981 10982 10982 10982 10983 10983 10983 10984 10984 10985 10985 10986 10986
11012 11013 11014 11015 11016 11017 11018 11019 11019 11020 11020 11021 11021 11022 11022 11022 11022 11022 11022 11022 11022 11021 11021 11020 11020 11019 11019 11018 11018 11017 11016 11015 11014 11013 11012 11011 11010 11009 11008 11006 11004 11002 11001 10999 10997 10995 10993 10991 10988 10986 10984 10983 10981 10979 10977 10975 10974 10973 10972 10972 10974 10974 10975 10975 10976 10976 10977 10979 10980 10980 10981 10981 10981 10981 10980 10981 10982 10983 10983 10983 10983 10984 10984 10984 10984 10985 10985 10985
11010 11011 11012 11013 11014 11015 11016 11017 11018 11019 11019 11020 11020 11021 11021 11021 11021 11021 11022 11022 11022 11021 11021 11021 11020 11019 11019 11019 11018 11018 11017 11016 11015 11014 11013 11012 11011 11010 11009 11008 11006 11004 11002 11000 10999 10997 10995 10993 10990 10988 10986 10984 10982 10979 10977 10976 10974 10973 10973 10973 10973 10974 10974 10975 10975 10976 10977 10979 10980 10981 10982 10982 10982 10981 10981 10982 10983 10983 10983 10983 10983 10984 10984 10984 10984 10984 10985 10985
11007 11009 11010 11011 11012 11013 11014 11015 11016 11017 11018 11018 11019 11020 11020 11020 11020 11021 11021 11022 11022 11022 11021 11021 11020 11020 11019 11019 11019 11018 11017 11017 11016 11015 11014 11013 11012 11011 11010 11009 11007 11005 11004 11002 11000 10998 10996 10994 10992 10990 10988 10985 10983 10981 10979 10977 10975 10975 10974 10973 10973 10973 10974 10974 10975 10976 10977 10979 10980 10981 10982 10982 10982 10982 10982 10983 10983 10984 10984 10983 10983 10984 10984 10984 10984 10984 10985 10985
11004 11006 11007 11008 11009 11010 11011 11012 11013 11014 11016 11017 11018 11018 11019 11020 11020 11020 11021 11021 11021 11021 11021 11021 11020 11020 11019 11019 11019 11018 11018 11017 11016 11016 11015 11014 11013 11012 11011 11010 11009 11007 11005 11004 11002 11000 10998 10996 10994 10992 10990 10987 10984 10982 10980 10978 10977 10976 10975 10973 10973 10973 10973 10974 10974 10975 10977 10978 10979 10981 10982 10983 10983 10982 10983 10983 10982 10983 10984 10984 10984 10984 10984 10985 10984 10985 10985 10985
11001 11002 11004 11005 11006 11008 11009 11010 11011 11012 11013 11015 11016 11016 11018 11018 11019 11019 11020 11020 11021 11021 11021 11020 11020 11020 11019 11019 11019 11019 11018 11018 11017 11016 11015 11015 11014 11013 11012 11011 11010 11008 11007 11005 11004 11002 11000 10998 10996 10994 10992 10989 10986 10984 10981 10979 10978 10976 10975 10974 10973 10973 10973 10974 10974 10975 10976 10978 10979 10980 10982 10983 10983 10983 10984 10982 10981 10982 10984 10984 10984 10985 10985 10985 10985 10985 10984 10984
10997 10998 11000 11001 11003 11005 11006 11007 11009 11010 11011 11012 11013 11014 11016 11017 11017 11018 11018 11019 11020 11020 11020 11020 11020 11019 11019 11019 11018 11018 11018 11018 11017 11017 11016 11015 11014 11013 11012 11011 11010 11009 11008 11007 11005 11003 11002 11000 10998 10996 10993 10991 10989 10986 10983 10981 10979 10977 10976 10975 10974 10974 10974 10974 10975 10975 10976 10977 10979 10980 10982 10983 10984 10984 10984 10983 10982 10983 10985 10985 10985 10985 10985 10985 10985 10985 10984 10984
10994 10995 10996 10998 10999 11001 11003 11004 11006 11007 11008 11009 11010 11011 11013 11015 11015 11016 11017 11017 11018 11019 11019 11019 11019 11019 11019 11018 11018 11018 11018 11018 11017 11017 11016 11016 11015 11014 11013 11012 11011 11010 11009 11008 11006 11005 11003 11002 11000 10998 10995 10993 10991 10988 10986 10984 10981 10979 10978 10977 10976 10975 10975 10975 10975 10976 10976 10977 10978 10980 10981 10983 10984 10984 10984 10984 10985 10985 10985 10985 10985 10985 10985 10985 10985 10985 10985 10984
10991 10992 10993 10994 10996 10997 10999 11001 11002 11004 11005 11007 11008 11009 11010 11012 11013 11014 11015 11016 11017 11018 11018 11019 11019 11018 11018 11018 11018 11018 11018 11017 11017 11017 11016 11016 11015 11014 11014 11013 11012 11010 11009 11009 11007 11006 11005 11003 11002 11000 10998 10996 10994 10991 10988 10986 10984 10982 10980 10979 10978 10977 10976 10976 10976 10976 10977 10978 10979 10980 10981 10983 10984 10985 10984 10984 10985 10985 10985 10985 10985 10985 10985 10985 10985 10985 10985 10985
10987 10988 10989 10991 10992 10993 10995 10997 10998 11000 11002 11003 11005 11006 11007 11009 11010 11012 11013 11014 11015 11016 11017 11017 11018 11018 11017 11017 11017 11017 11017 11017 11017 11016 11016 11016 11015 11015 11014 11013 11012 11011 11010 11009 11008 11007 11006 11005 11004 11002 11000 10998 10996 10994 10991 10989 10987 10985 10983 10981 10980 10979 10978 10978 10978 10977 10978 10978 10979 10980 10982 10983 10984 10984 10983 10984 10985 10985 10985 10985 10985 10985 10985 10985 10984 10984 10984 10984
10983 10984 10986 10987 10988 10990 10991 10993 10994 10996 10998 11000 11002 11003 11004 11005 11007 11009 11010 11011 11013 11014 11015 11016 11016 11017 11016 11016 11016 11016 11016 11016 11016 11016 11016 11015 11015 11015 11014 11014 11013 11012 11011 11009 11009 11008 11007 11006 11005 11004 11002 11001 10998 10996 10995 10993 10991 10988 10985 10984 10983 10981 10980 10980 10980 10979 10979 10980 10981 10981 10982 10983 10984 10984 10984 10984 10984 10984 10986 10986 10985 10984 10984 10984 10984 10983 10983 10983
10978 10980 10981 10983 10984 10986 10987 10989 10990 10992 10994 10996 10998 10999 11000 11002 11004 11005 11007 11008 11010 11012 11012 11013 11015 11015 11015 11015 11015 11015 11015 11016 11016 11015 11015 11015 11015 11015 11014 11014 11013 11012 11011 11010 11009 11008 11007 11006 11006 11005 11004 11002 11001 10999 10997 10995 10993 10991 10989 10987 10985 10984 10983 10982 10982 10981 10982 10982 10983 10983 10983 10983 10984 10984 10984 10985 10985 10985 10985 10986 10985 10984 10984 10983 10983 10983 10982 10982
10973 10975 10977 10978 10980 10982 10983 10985 10987 10988 10990 10992 10994 10995 10996 10998 11000 11002 11003 11005 11007 11009 11010 11011 11012 11013 11014 11014 11014 11014 11014 11014 11015 11015 11014 11014 11014 11014 11014 11014 11013 11013 11012 11011 11010 11009 11008 11007 11006 11006 11005 11004 11003 11001 10999 10997 10995 10993 10992 10989 10987 10986 10985 10984 10984 10983 10983 10984 10984 10984 10985 10984 10985 10985 10984 10985 10985 10985 10985 10985 10985 10984 10984 10983 10982 10982 10981 10981
10968 10969 10971 10974 10975 10977 10979 10981 10982 10984 10985 10987 10990 10991 10992 10994 10996 10998 10999 11001 11004 11006 11007 11008 11009 11011 11012 11012 11012 11013 11013 11013 11013 11014 11014 11013 11013 11013 11014 11013 11013 11013 11012 11011 11010 11009 11009 11008 11007 11006 11006 11004 11004 11002 11001 10999 10997 10995 10993 10991 10990 10988 10987 10986 10986 10985 10985 10985 10986 10986 10986 10985 10985 10985 10985 10985 10985 10985 10986 10986 10985 10984 10984 10983 10982 10982 10981 10980
10962 10964 10966 10968 10970 10972 10974 10976 10978 10979 10981 10983 10985 10987 10988 10990 10992 10993 10995 10997 11000 11003 11004 11005 11006 11008 11009 11010 11011 11010 11011 11012 11012 11013 11013 11013 11012 11012 11013 11013 11013 11013 11012 11011 11010 11010 11009 11008 11007 11007 11006 11005 11004 11003 11002 11000 10998 10997 10995 10994 10993 10992 10990 10989 10988 10988 10987 10987 10987 10987 10987 10987 10987 10986 10986 10986 10985 10986 10987 10986 10985 10984 10984 10984 10983 10983 10982 10981
10956 10958 10960 10962 10965 10967 10969 10971 10973 10975 10977 10978 10980 10983 10984 10986 10987 10989 10991 10993 10996 10999 11000 11002 11003 11005 11006 11007 11008 11008 11009 11010 11010 11011 11011 11011 11011 11011 11012 11012 11012 11012 11012 11011 11011 11010 11009 11008 11008 11007 11006 11005 11005 11004 11003 11001 11000 10999 10998 10996 10995 10994 10992 10991 10991 10990 10989 10989 10989 10989 10988 10988 10988 10987 10987 10987 10987 10988 10987 10986 10986 10985 10985 10985 10984 10984 10983 10981
10949 10951 10954 10956 10958 10961 10963 10966 10968 10970 10972 10974 10976 10978 10980 10981 10983 10985 10987 10988 10991 10994 10996 10998 10999 11001 11002 11003 11006 11008 11008 11008 11009 11009 11010 11010 11010 11010 11010 11010 11011 11011 11011 11011 11010 11010 11009 11008 11008 11007 11006 11005 11005 11004 11003 11002 11001 11000 10999 10998 10997 10996 10995 10994 10993 10992 10991 10991 10991 10990 10989 10989 10989 10988 10988 10988 10988 10988 10988 10987 10986 10986 10987 10986 10985 10984 10983 10982
10942 10944 10947 10949 10952 10955 10957 10960 10963 10965 10966 10968 10970 10973 10975 10977 10978 10980 10982 10984 10986 10989 10992 10994 10995 10997 10998 11001 11005 11005 11004 11005 11006 11006 11008 11008 11008 11009 11009 11009 11009 11010 11010 11010 11010 11009 11009 11008 11008 11007 11006 11005 11005 11004 11004 11003 11002 11001 11001 11000 10998 10997 10997 10996 10995 10994 10993 10993 10992 10991 10991 10991 10990 10990 10990 10989 10989 10989 10989 10988 10988 10988 10988 10987 10986 10985 10984 10983
10934 10937 10940 10942 10945 10948 10951 10954 10957 10959 10961 10963 10965 10967 10970 10972 10974 10976 10978 10980 10981 10984 10987 10989 10992 10994 10994 10996 10999 11000 11001 11001 11002 11004 11006 11006 11007 11007 11007 11007 11008 11008 11009 11009 11009 11009 11008 11008 11007 11007 11006 11006 11005 11004 11004 11003 11003 11002 11002 11001 11000 10999 10998 10997 10996 10996 10995 10995 10994 10993 10993 10992 10992 10991 10991 10991 10990 10990 10990 10990 10990 10989 10989 10988 10987 10986 10985 10984
10926 10930 10932 10935 10938 10941 10944 10947 10950 10953 10956 10957 10959 10961 10964 10967 10969 10972 10975 10975 10976 10979 10982 10984 10987 10989 10989 10991 10995 10998 10998 10998 11000 11002 11003 11004 11005 11005 11005 11005 11006 11006 11007 11008 11008 11008 11008 11007 11007 11007 11006 11005 11005 11004 11004 11003 11003 11003 11002 11002 11001 11000 10999 10999 10998 10997 10997 10996 10995 10995 10994 10993 10993 10992 10992 10992 10991 10991 10991 10991 10991 10990 10990 10988 10988 10987 10986 10984
10918 10921 10924 10927 10930 10933 10937 10940 10944 10947 10949 10952 10953 10956 10959 10961 10964 10969 10969 10968 10971 10975 10977 10979 10982 10984 10986 10989 10992 10994 10993 10994 10998 10999 11000 11001 11002 11003 11003 11003 11003 11004 11005 11006 11007 11007 11007 11006 11006 11006 11006 11005 11005 11004 11003 11003 11002 11002 11002 11002 11001 11001 11000 11000 10999 10998 10997 10996 10996 10996 10995 10994 10994 10993 10993 10992 10992 10992 10992 10991 10991 10991 10990 10989 10988 10987 10986 10985
10910 10913 10916 10919 10922 10925 10929 10933 10937 10939 10942 10945 10947 10950 10954 10956 10959 10963 10962 10964 10968 10970 10971 10974 10976 10980 10982 10984 10987 10988 10987 10991 10995 10995 10996 10998 10999 11000 11001 11001 11001 11001 11002 11003 11005 11005 11005 11005 11005 11005 11004 11004 11004 11004 11003 11002 11002 11001 11001 11001 11001 11000 11000 11000 11000 10999 10998 10997 10996 10996 10995 10994 10994 10993 10993 10992 10992 10992 10992 10992 10992 10991 10990 10989 10988 10987 10986 10985
10901 10904 10908 10911 10914 10917 10921 10925 10929 10932 10935 10938 10940 10944 10947 10950 10954 10957 10957 10960 10963 10964 10967 10969 10971 10975 10978 10979 10982 10981 10983 10989 10991 10991 10993 10995 10996 10997 10998 10998 10999 10999 11000 11000 11002 11003 11003 11003 11003 11003 11003 11003 11003 11003 11002 11002 11001 11001 11000 11000 11000 11000 11000 10999 10999 10999 10998 10997 10996 10996 10995 10994 10994 10993 10992 10992 10992 10992 10992 10992 10992 10991 10990 10989 10988 10987 10986 10985
10893 10896 10900 10903 10907 10910 10913 10917 10921 10924 10928 10931 10934 10937 10940 10944 10947 10950 10952 10955 10958 10959 10962 10963 10966 10970 10972 10974 10976 10976 10979 10984 10985 10986 10989 10990 10993 10994 10995 10996 10996 10997 10997 10997 10999 11000 11001 11001 11002 11002 11001 11001 11001 11001 11001 11001 11000 11000 10999 10999 10999 10999 10999 10999 10999 10999 10998 10997 10996 10996 10995 10995 10995 10993 10992 10991 10991 10992 10992 10992 10992 10991 10990 10989 10988 10987 10986 10985
10884 10887 10891 10895 10898 10902 10905 10908 10912 10917 10920 10924 10927 10929 10933 10937 10940 10943 10946 10949 10953 10953 10954 10957 10961 10964 10966 10969 10971 10971 10975 10978 10980 10982 10984 10985 10989 10990 10991 10993 10993 10994 10994 10995 10996 10997 10998 10999 11000 11000 11000 11000 11000 11000 11000 10999 10999 10998 10998 10998 10998 10998 10999 10998 10998 10998 10997 10997 10996 10996 10995 10995 10994 10993 10992 10990 10990 10991 10991 10991 10991 10990 10989 10989 10988 10987 10986 10985
10874 10878 10882 10887 10890 10894 10897 10899 10903 10909 10913 10917 10919 10922 10926 10929 10933 10938 10939 10943 10946 10946 10949 10954 10956 10958 10960 10963 10964 10966 10970 10973 10975 10977 10978 10981 10984 10986 10988 10990 10990 10990 10991 10992 10993 10994 10995 10996 10997 10998 10998 10998 10998 10998 10998 10998 10998 10997 10997 10996 10996 10996 10997 10997 10997 10996 10996 10996 10996 10995 10995 10994 10993 10992 10991 10990 10990 10989 10989 10989 10989 10989 10988 10987 10987 10986 10985 10984
10865 10868 10873 10878 10881 10885 10888 10890 10894 10901 10906 10908 10911 10915 10918 10921 10926 10930 10933 10936 10938 10940 10945 10948 10950 10952 10953 10956 10959 10962 10966 10968 10969 10972 10974 10976 10979 10981 10984 10985 10986 10987 10987 10989 10990 10991 10992 10993 10994 10995 10995 10996 10996 10996 10996 10996 10997 10997 10996 10995 10995 10995 10995 10995 10995 10995 10995 10995 10995 10994 10993 10993 10992 10992 10991 10990 10989 10988 10987 10988 10988 10987 10987 10986 10985 10985 10983 10982
10855 10859 10863 10868 10873 10876 10879 10882 10886 10892 10897 10899 10903 10907 10910 10915 10919 10922 10926 10929 10930 10936 10941 10943 10945 10946 10945 10951 10956 10958 10960 10961 10964 10967 10968 10970 10973 10976 10979 10981 10982 10982 10984 10986 10986 10987 10989 10990 10991 10992 10993 10993 10993 10994 10994 10994 10994 10995 10995 10994 10993 10993 10993 10993 10993 10993 10993 10993 10993 10993 10992 10992 10992 10991 10990 10990 10989 10988 10987 10987 10987 10986 10985 10984 10983 10983 10982 10980
10845 10849 10853 10858 10864 10867 10870 10873 10877 10883 10888 10891 10895 10899 10903 10907 10911 10915 10919 10921 10925 10932 10935 10936 10938 10937 10940 10948 10950 10949 10952 10955 10959 10961 10962 10964 10968 10971 10974 10976 10977 10978 10981 10982 10982 10984 10985 10986 10987 10988 10989 10990 10990 10991 10991 10991 10992 10993 10993 10993 10992 10991 10991 10991 10991 10991 10991 10991 10991 10991 10991 10990 10990 10990 10989 10989 10988 10987 10987 10987 10986 10984 10983 10982 10981 10980 10980 10978
10835 10839 10843 10848 10854 10857 10861 10865 10868 10874 10879 10882 10888 10891 10895 10900 10904 10908 10913 10916 10919 10925 10929 10930 10929 10931 10938 10943 10941 10941 10946 10949 10953 10955 10956 10960 10963 10966 10969 10971 10972 10974 10977 10977 10979 10981 10981 10982 10983 10983 10985 10986 10987 10988 10988 10988 10990 10990 10990 10991 10990 10990 10989 10989 10989 10989 10989 10989 10989 10989 10989 10989 10988 10989 10988 10987 10987 10986 10986 10985 10985 10983 10982 10981 10980 10978 10977 10976
10824 10829 10832 10837 10844 10848 10851 10856 10859 10864 10870 10875 10879 10883 10887 10892 10896 10901 10908 10911 10911 10917 10924 10922 10921 10926 10933 10935 10934 10935 10940 10944 10946 10949 10953 10956 10959 10961 10964 10966 10967 10971 10972 10972 10974 10976 10977 10978 10978 10979 10981 10982 10983 10984 10985 10985 10986 10987 10987 10988 10988 10988 10988 10987 10987 10987 10987 10986 10986 10986 10987 10987 10986 10987 10987 10986 10986 10985 10984 10984 10983 10982 10981 10979 10977 10976 10974 10973
10813 10819 10821 10826 10833 10837 10841 10847 10850 10853 10861 10866 10870 10875 10880 10884 10891 10897 10901 10902 10902 10910 10917 10913 10914 10921 10925 10927 10927 10928 10934 10938 10939 10945 10948 10950 10953 10955 10958 10960 10962 10964 10964 10966 10969 10970 10972 10973 10973 10975 10978 10978 10979 10980 10980 10981 10983 10983 10983 10984 10985 10985 10986 10985 10985 10985 10985 10984 10984 10984 10984 10984 10984 10984 10984 10984 10983 10983 10983 10982 10981 10980 10979 10977 10975 10973 10971 10970
10802 10808 10810 10815 10822 10826 10831 10838 10840 10844 10852 10857 10862 10867 10872 10879 10886 10890 10891 10892 10895 10901 10906 10905 10908 10913 10915 10920 10920 10921 10928 10931 10933 10939 10941 10942 10946 10949 10951 10954 10955 10956 10958 10960 10963 10965 10967 10969 10970 10972 10973 10974 10974 10975 10976 10978 10978 10979 10980 10980 10981 10982 10983 10982 10982 10983 10983 10982 10982 10982 10982 10982 10981 10981 10981 10981 10981 10980 10979 10979 10979 10978 10977 10975 10974 10972 10970 10967
10790 10796 10799 10803 10809 10815 10822 10827 10830 10835 10841 10848 10854 10859 10865 10874 10880 10880 10881 10885 10887 10891 10896 10899 10901 10903 10907 10912 10913 10915 10922 10923 10927 10932 10934 10936 10941 10944 10946 10949 10950 10951 10953 10956 10958 10961 10962 10965 10967 10967 10967 10969 10969 10970 10972 10974 10974 10974 10975 10976 10977 10978 10979 10979 10979 10979 10979 10979 10978 10979 10979 10979 10979 10978 10977 10978 10978 10977 10976 10975 10975 10975 10974 10973 10971 10970 10967 10965
10778 10784 10787 10791 10796 10804 10811 10816 10820 10826 10831 10839 10846 10852 10861 10868 10870 10870 10873 10877 10879 10881 10885 10890 10894 10896 10901 10905 10906 10911 10915 10916 10920 10926 10929 10931 10935 10938 10941 10943 10945 10945 10947 10950 10953 10955 10957 10959 10962 10961 10961 10965 10964 10965 10969 10969 10969 10969 10970 10972 10973 10973 10975 10975 10975 10976 10975 10976 10975 10975 10976 10975 10976 10976 10974 10975 10975 10974 10973 10972 10971 10971 10971 10970 10969 10967 10965 10963
10765 10771 10775 10778 10783 10792 10800 10805 10810 10816 10822 10829 10838 10847 10855 10858 10859 10860 10864 10867 10867 10869 10875 10883 10888 10890 10893 10897 10901 10906 10908 10908 10914 10921 10922 10925 10928 10931 10935 10937 10939 10939 10941 10944 10947 10949 10950 10952 10955 10954 10956 10961 10959 10959 10965 10965 10962 10965 10967 10968 10969 10969 10970 10970 10971 10972 10972 10972 10971 10971 10972 10972 10972 10973 10972 10971 10971 10971 10970 10969 10968 10968 10967 10967 10967 10964 10962 10961
10751 10758 10762 10765 10770 10780 10788 10794 10800 10806 10812 10821 10832 10841 10845 10847 10849 10850 10853 10856 10856 10860 10870 10878 10882 10884 10886 10889 10894 10899 10900 10900 10907 10915 10915 10918 10923 10926 10929 10931 10932 10933 10935 10938 10940 10941 10942 10943 10948 10950 10951 10955 10954 10954 10961 10959 10956 10961 10962 10962 10965 10965 10965 10966 10966 10967 10967 10967 10967 10967 10968 10968 10969 10970 10970 10969 10968 10967 10966 10966 10966 10965 10964 10964 10964 10962 10960 10959
10738 10745 10749 10751 10758 10768 10776 10783 10790 10796 10803 10813 10825 10831 10833 10836 10839 10839 10842 10846 10848 10855 10864 10869 10874 10876 10877 10881 10886 10890 10891 10891 10899 10908 10908 10911 10917 10920 10923 10925 10926 10928 10930 10932 10932 10932 10936 10937 10940 10946 10947 10947 10949 10951 10955 10954 10952 10956 10957 10957 10961 10961 10959 10962 10961 10961 10963 10963 10962 10963 10963 10964 10965 10966 10968 10967 10964 10963 10963 10963 10962 10962 10961 10960 10960 10960 10958 10957
10725 10731 10734 10738 10747 10756 10763 10772 10779 10785 10795 10807 10816 10819 10821 10824 10826 10828 10833 10838 10842 10849 10857 10862 10866 10868 10869 10874 10877 10880 10884 10886 10892 10900 10901 10905 10911 10913 10915 10918 10920 10922 10922 10923 10923 10926 10933 10931 10929 10940 10943 10940 10945 10948 10949 10949 10947 10949 10950 10952 10956 10955 10954 10957 10956 10956 10958 10958 10957 10957 10957 10959 10961 10962 10964 10963 10960 10960 10961 10960 10958 10958 10957 10956 10955 10955 10955 10954
10712 10718 10722 10728 10735 10741 10750 10761 10769 10777 10788 10798 10802 10805 10808 10812 10815 10817 10822 10829 10834 10842 10850 10854 10857 10859 10860 10865 10869 10872 10879 10882 10884 10891 10895 10898 10902 10905 10907 10910 10914 10914 10913 10915 10917 10920 10928 10924 10919 10930 10938 10936 10941 10944 10943 10942 10941 10942 10946 10947 10949 10950 10951 10952 10952 10952 10952 10952 10952 10951 10949 10953 10958 10958 10958 10958 10956 10955 10956 10956 10955 10953 10953 10953 10952 10951 10952 10951
10699 10704 10711 10716 10720 10729 10740 10750 10759 10768 10777 10783 10788 10793 10797 10801 10804 10807 10813 10822 10829 10836 10842 10844 10848 10851 10852 10857 10863 10865 10871 10875 10875 10882 10889 10891 10894 10898 10900 10903 10907 10906 10904 10907 10911 10915 10919 10916 10913 10922 10932 10934 10936 10938 10936 10934 10935 10938 10941 10942 10943 10945 10946 10946 10946 10948 10947 10945 10946 10945 10942 10946 10953 10953 10952 10954 10952 10950 10950 10950 10951 10950 10947 10948 10948 10946 10947 10948
10686 10692 10700 10705 10709 10720 10731 10740 10748 10756 10764 10771 10776 10780 10785 10791 10795 10799 10807 10816 10822 10827 10831 10833 10839 10843 10845 10851 10857 10858 10861 10866 10868 10875 10882 10883 10886 10890 10893 10896 10898 10897 10897 10900 10905 10909 10909 10908 10909 10916 10925 10929 10928 10931 10931 10928 10930 10934 10936 10937 10938 10939 10941 10941 10940 10942 10942 10940 10941 10940 10936 10940 10947 10946 10946 10949 10947 10946 10946 10944 10945 10946 10942 10941 10942 10942 10942 10942
10674 10682 10693 10695 10697 10708 10719 10727 10736 10745 10752 10758 10762 10767 10774 10782 10787 10791 10798 10807 10813 10817 10820 10825 10831 10835 10839 10843 10847 10849 10851 10856 10863 10868 10872 10874 10877 10881 10884 10887 10889 10889 10891 10892 10896 10902 10902 10902 10906 10911 10917 10920 10920 10925 10928 10924 10924 10929 10930 10932 10932 10931 10933 10935 10934 10936 10938 10936 10936 10934 10930 10934 10940 10938 10940 10943 10939 10941 10944 10939 10939 10942 10939 10936 10936 10936 10936 10936
10664 10673 10682 10681 10683 10696 10709 10717 10725 10733 10738 10742 10748 10757 10765 10772 10777 10783 10790 10798 10804 10807 10811 10817 10822 10825 10830 10834 10837 10840 10841 10847 10856 10859 10861 10864 10868 10871 10874 10878 10881 10883 10884 10885 10888 10894 10897 10897 10900 10904 10908 10912 10914 10919 10923 10920 10919 10923 10924 10924 10925 10925 10926 10928 10929 10931 10933 10932 10932 10929 10924 10927 10933 10932 10933 10934 10931 10934 10939 10935 10933 10935 10934 10933 10931 10930 10931 10930
10654 10661 10669 10669 10673 10688 10700 10706 10712 10719 10724 10731 10740 10748 10755 10762 10769 10775 10782 10788 10792 10797 10801 10806 10810 10814 10820 10825 10830 10831 10832 10839 10848 10850 10853 10857 10859 10862 10865 10869 10875 10876 10875 10879 10881 10885 10890 10892 10893 10897 10902 10906 10909 10912 10916 10916 10914 10915 10916 10916 10919 10920 10921 10922 10923 10925 10928 10928 10926 10924 10919 10920 10925 10925 10925 10927 10925 10926 10930 10931 10929 10928 10928 10929 10928 10925 10924 10924
10644 10649 10657 10658 10663 10677 10689 10693 10700 10708 10716 10723 10731 10738 10745 10753 10760 10766 10772 10775 10778 10784 10789 10793 10798 10803 10809 10815 10821 10821 10825 10833 10838 10840 10845 10848 10850 10854 10856 10860 10868 10867 10866 10873 10876 10875 10880 10885 10889 10893 10896 10900 10903 10904 10905 10908 10909 10909 10909 10909 10911 10914 10916 10917 10917 10919 10921 10922 10921 10918 10914 10913 10917 10917 10917 10919 10920 10920 10922 10925 10926 10923 10922 10923 10923 10921 10919 10917
10634 10638 10645 10648 10654 10668 10678 10682 10691 10700 10706 10713 10719 10726 10735 10742 10749 10755 10758 10760 10762 10769 10776 10782 10788 10795 10800 10806 10811 10814 10820 10827 10828 10830 10837 10842 10844 10846 10847 10851 10854 10855 10860 10868 10868 10865 10871 10880 10885 10888 10890 10893 10897 10897 10895 10897 10902 10904 10904 10903 10904 10906 10909 10911 10912 10913 10914 10915 10916 10913 10907 10906 10909 10910 10910 10910 10913 10915 10915 10916 10918 10919 10918 10917 10916 10916 10914 10912
10625 10630 10637 10644 10649 10660 10667 10672 10681 10690 10696 10702 10709 10717 10725 10732 10738 10742 10742 10745 10749 10757 10767 10775 10781 10789 10794 10799 10805 10810 10815 10816 10817 10820 10826 10832 10835 10835 10835 10839 10841 10847 10857 10862 10858 10859 10866 10873 10877 10879 10884 10888 10889 10887 10886 10887 10893 10899 10899 10897 10898 10899 10901 10904 10907 10907 10906 10908 10910 10905 10899 10899 10900 10902 10904 10904 10906 10909 10910 10909 10910 10913 10913 10912 10911 10909 10908 10908
10617 10622 10630 10636 10641 10647 10655 10662 10672 10682 10688 10694 10699 10707 10715 10721 10726 10728 10729 10733 10740 10748 10759 10768 10773 10780 10785 10789 10796 10801 10801 10802 10806 10809 10814 10820 10823 10822 10824 10829 10833 10841 10851 10852 10851 10855 10859 10862 10868 10872 10878 10882 10879 10878 10880 10881 10884 10891 10892 10889 10891 10894 10895 10897 10899 10898 10899 10902 10901 10894 10890 10891 10892 10894 10899 10900 10901 10903 10903 10901 10903 10906 10906 10905 10905 10904 10902 10902
10608 10613 10619 10626 10630 10635 10643 10651 10660 10668 10674 10681 10688 10696 10704 10709 10713 10717 10719 10726 10734 10741 10751 10758 10762 10767 10771 10776 10783 10785 10786 10791 10796 10799 10806 10812 10814 10815 10819 10823 10827 10835 10842 10843 10844 10848 10849 10851 10859 10866 10869 10873 10873 10871 10873 10875 10875 10879 10882 10881 10884 10888 10890 10890 10889 10889 10892 10893 10890 10884 10882 10883 10886 10889 10892 10894 10896 10898 10895 10894 10897 10898 10898 10898 10898 10897 10897 10896
10599 10604 10610 10617 10622 10627 10636 10644 10652 10658 10664 10672 10679 10686 10692 10697 10702 10707 10711 10717 10726 10733 10739 10746 10751 10756 10760 10766 10772 10773 10776 10785 10789 10793 10802 10806 10805 10809 10815 10816 10820 10828 10834 10834 10834 10837 10841 10844 10851 10856 10859 10864 10868 10865 10864 10865 10865 10867 10873 10876 10878 10881 10881 10881 10880 10880 10884 10883 10878 10874 10876 10878 10881 10885 10886 10887 10891 10892 10888 10888 10892 10890 10889 10892 10891 10890 10890 10889
10590 10595 10601 10608 10614 10621 10628 10636 10643 10649 10655 10663 10669 10675 10681 10686 10691 10697 10702 10710 10718 10723 10727 10735 10743 10749 10752 10758 10763 10767 10774 10783 10785 10787 10795 10795 10794 10801 10806 10808 10815 10821 10824 10825 10825 10827 10834 10839 10840 10843 10849 10855 10860 10858 10854 10852 10853 10859 10867 10870 10871 10871 10870 10871 10872 10874 10875 10872 10866 10865 10871 10875 10876 10879 10882 10881 10882 10884 10883 10884 10884 10882 10883 10885 10883 10882 10882 10881